Regional Weather Roundup
Issued by NWS Charleston, SC

Home | Current Version | Previous Version | Text Only | Print | Product List | Glossary On
Versions: 1 2 3 4 5 6 7 8 9 10 11 12 13 14 15 16 17 18 19 20 21 22 23 24 25 26 27 28 29 30 31 32 33 34 35 36 37 38 39 40 41 42 43 44 45 46 47 48 49 50
000
ASUS42 KCHS 271412
RWRCHS

REGIONAL WEATHER ROUNDUP
NATIONAL WEATHER SERVICE CHARLESTON SC
1000 AM EDT THU JUL 27 2017

NOTE: "FAIR" INDICATES FEW OR NO CLOUDS BELOW 12,000 FEET WITH NO
SIGNIFICANT WEATHER AND/OR OBSTRUCTIONS TO VISIBILITY.

NOT ALL STATIONS ARE QUALITY CONTROLLED. USE DATA WITH CAUTION...
ESPECIALLY DEWPOINT OBSERVATIONS.

SCZ027-030-031-034>040-042>050-271500-
...SOUTHEAST SOUTH CAROLINA...

CITY           SKY/WX    TMP DP  RH WIND       PRES   REMARKS
N CHARLESTON   HVY RAIN  77  74  90 SW8       30.08R FOG
WATERFRONT PRK   N/A     79  76  91 SW6       30.05S
JOHNS ISLAND   FAIR      81  75  83 S5        30.08R
PINOPOLIS        N/A     81  77  89 VRB3      30.01R
MONCKS CORNER  PTSUNNY   77  75  94 CALM      30.08R
SUMMERVILLE    PTSUNNY   79  75  89 SW5       30.08S
BEAUFORT MCAS  CLOUDY    80  74  81 SE3       30.07R
BEAUFORT ARPT  CLOUDY    77  70  78 CALM      30.06S HAZE
HILTON HEAD IS CLOUDY    77  75  94 S6        30.07R
WALTERBORO     PTSUNNY   77  73  88 CALM      30.08F
ALLENDALE      NOT AVBL

...SOUTHERN MIDLANDS AND PEE DEE...

CITY           SKY/WX    TMP DP  RH WIND       PRES   REMARKS
GEORGETOWN     FAIR      82  79  89 E5        30.08S HX  93
KINGSTREE      PTSUNNY   81  75  83 E3        30.07F
ORANGEBURG     MOSUNNY   80  74  81 E3        30.08F
BARNWELL       PTSUNNY   81  77  89 E6        30.08S
AIKEN          NOT AVBL
MANNING        CLOUDY    81  77  89 CALM      30.08S
COLUMBIA       CLOUDY    79  74  84 S6        30.07F
SUMTER         PTSUNNY   81  74  77 SE2       30.05F
FLORENCE       MOSUNNY   81  76  84 SE6       30.08F
MYRTLE BEACH   MOSUNNY   82  73  74 S12       30.08R
N MYRTLE BEACH MOSUNNY   82  76  81 VRB7      30.07S

$$

GAZ063-065-086>088-099>101-113>116-118-119-134>141-150-271500-
...SOUTHEAST GEORGIA...

CITY           SKY/WX    TMP DP  RH WIND       PRES   REMARKS
SAVANNAH ARPT  CLOUDY    77  73  87 CALM      30.06S
HUNTER AAF     RAIN      77  73  88 E3        30.02S
FORT STEWART   PTSUNNY   77  73  88 NE5       30.02F
STATESBORO     CLOUDY    78  75  91 NE3       30.07S
SYLVANIA       CLOUDY    78  76  93 E7        30.08S
CLAXTON        CLOUDY    78  75  92 N3        30.06S

...CSRA...CENTRAL AND FAR SOUTHEAST GEORGIA...

CITY           SKY/WX    TMP DP  RH WIND       PRES   REMARKS
THOMSON        CLOUDY    75  73  93 W3        30.15R FOG
AUGUSTA-BUSH   CLOUDY    78  75  90 E3        30.07F
AUGUSTA-DANIEL CLOUDY    77  72  84 E3        30.09S HAZE
SWAINSBORO     FAIR      81  73  78 NE5       30.08S
VIDALIA        PTSUNNY   81  77  89 N5        30.06F
EASTMAN        FAIR      81  68  63 NE5       30.10S
HAZLEHURST     CLOUDY    78  78 100 NE5       30.05F
ALMA           CLOUDY    77  74  90 VRB6      30.04F
WAYCROSS       CLOUDY    78  78 100 N5        30.04S
JESUP          NOT AVBL
BAXLEY         CLOUDY    79  79 100 NE5       30.04F
BRUNSWICK      CLOUDY    75  75 100 W3        30.04S
SAINT SIMONS   TSTM      77  76  96 CALM      30.02S FOG

$$

SCZ027-028-034-036>038-045-046-048>050-GAZ119-141-271500-
...LAKE AND SUPPLEMENTAL COASTAL OBSERVATIONS...

STATION/POSITION TIME  TEMP    WIND        PRES    WAVE   SWELL
                       AIR SEA DIR/SP/G            HT/PER HT/PER/DIR
                 (UTC) (F)     (DEG/KT/KT) (MB)    (FT/S) (FT/S/D)
WINYAH BAY       NOT AVBL
LAKE MURRAY      1320   77     140/  6/  7 1017.6S
ACE BASIN NERRS  1245   78        CALM     1018.0
FORT PULASKI     1336   77 84  120/ 10/ 14 1017.5F
SAPELO ISLAND    1300   75      70/  6     1017.0

$$

ANZ835-935-AMZ111-154-330-350-352-354-370-450-454-472-271500-
...C-MAN AND BUOY OBSERVATIONS...

STATION/POSITION TIME  TEMP    WIND        PRES    WAVE   SWELL
                       AIR SEA DIR/SP/G            HT/PER HT/PER/DIR
                 (UTC) (F)     (DEG/KT/KT) (MB)    (FT/S) (FT/S/D)
BUOY 41004       1350   77 83  230/ 17/ 21 1017.9S   3/ 6   2/ 40/ 6
BUOY 41008       1250   78 80  110/ 10/ 12 1016.8    2/ 8   2/110/ 8
FOLLY BEACH CMAN 1300   78     250/  3/  5 1018.8R
CAPERS NEARSHORE 1308   80 84  190/ 14/ 19 1017.8R
FRIPP NEARSHORE  1308   77 83  180/  8/ 12 1017.7R


STATION/POSITION TIME  TEMP    WIND        PRES    WAVE   SWELL
                       AIR SEA DIR/SP/G            HT/PER HT/PER/DIR
                 (UTC) (F)     (DEG/KT/KT) (MB)    (FT/S) (FT/S/D)
5E ST. MARYS GA  1330      78                N/A     2/ 4
FRYING PAN BUOY  1350   82 82  110/ 10/ 12 1017.8S   2/ 6   2/ 90/ 6
BUOY 41025       1350   81 84  190/  2/  2 1018.3F   3/ 8   3/ 60/ 8
CAPE LOOKOUT NC  1300   81      80/  2/  2 1018.2R
BUOY 41002       1250   80 83  280/  8/  8 1017.7    3/ 7   3/ 40/ 7
BUOY 41010       1350   85 85  190/  8/ 10 1017.5S   3/ 7   3/130/ 7
ST AUGUSTINE FL  1400   77 75  160/  4/  5 1016.9F


$$



USA.gov is the U.S. government's official web portal to all federal, state and local government web resources and services.